Powrót do katalogu

SL-8 DEB

AktywnyLEO
NORAD 15756·DEBRIS·🇷🇺 Russia

Wystrzelony Aug 3, 1983 z Plesetsk Cosmodrome

Loading…

Następne Przeloty (najbliższe 24 godziny)

TLE

ŚwieżeSource: Space-Track

Epoka: Sep 14, 2026, 06:23 UTC

1 15756U 83079D   26257.26645341  .00003408  00000-0  37950-3 0  9996
2 15756  74.0435 354.2153 0007252 119.4782 240.7122 14.87504974191569

Śledź SL-8 DEB w czasie rzeczywistym z AllMySat

Download on the App Store